Location: Bodest
(46.3000°N, 22.5667°E)
Time: 23:26:42
(UTC+00:00)

Lacrosse 4 Rocket - Pass Details

Date: 16 October 2021
Orbit: 537 x 619 km, 68.0° (Epoch: 05 December)

Event Time Altitude Azimuth Distance (km) Brightness Sun altitude
Rises 16:54:01 0° 341° (NNW) 2,781 5.2 -13.3°
Reaches altitude 10° 16:57:37 10° 13° (NNE) 1,901 3.9 -13.9°
Maximum altitude 16:59:18 12° 36° (NE) 1,780 3.6 -14.2°
Enters shadow 16:59:44 12° 43° (NE) 1,791 3.5 -14.3°
